Content
SEND FEEDBACK

Daily
Averages
Monthly
Summary
Mexico

CANCUN, QUINTANA ROO


Home > North America > Mexico > Quintana Roo
Elevation: 9 meters     Latitude: 21 09N     Longitude: 086 49W

WEATHER
 
SELECT A DAY
Number of Records: 163,931;   Date Range: 1/1/95 - 8/31/14
 
SHARE

PRINT THIS DATA

[ ← Previous Day ]
WEATHER ALMANAC - 17 JANUARY, 2013
[ Next Day → ]
[ °F ]   °C
Weather ElementAverageHighLow
Temperature21.1 °C25 °C (8:49 am)19 °C (1:45 am)
Dewpoint18 °C21 °C (8:49 am)15 °C (11:46 pm)
Humidity83 %94 % (1:45 am)73 % (11:46 pm)
Barometer1019.6 hPa1022.4 hPa (7:44 pm)1016.6 hPa (2:40 am)
Wind Speed11.7 km/h20.4 km/h (11:51 am)
Weather ElementAverage
Visibility10.8 km
Wind DirectionNNW (321.7 °)

Weather ElementTotal
Precipitation---
Cooling Degree Days3.7 (Base 18.3)
Growing Degree Days12 (Base 10)
Averaged from 23 records on 17 January, 2013
WEATHER CONDITIONS BREAKOUT
WIND DIRECTION BREAKOUT
WEATHER BY HOUR - 17 JANUARY, 2013
[ °F ]   °C
Local TimeTemperatureDewpointHumidityBarometerVisibilityWind DirectionWind SpeedGust SpeedPrecipitationEventsConditions
1:45 AM19 °C18 °C94 %1016.9 hPa11.3 kmCalmPartly Cloudy
2:40 AM19 °C18 °C94 %1016.6 hPa11.3 kmNNW (340°)3.7 km/hPartly Cloudy
3:42 AM19 °C18 °C94 %1016.6 hPa11.3 kmNW (310°)9.3 km/hPartly Cloudy
4:40 AM19 °C18 °C94 %1016.9 hPa11.3 kmNW (310°)7.4 km/hPartly Cloudy
5:43 AM19 °C18 °C94 %1017.3 hPa11.3 kmNW (320°)7.4 km/hPartly Cloudy
6:41 AM19 °C18 °C94 %1019 hPa11.3 kmNW (320°)7.4 km/hScattered Clouds
7:52 AM22 °C20 °C88 %1019.6 hPa11.3 kmNW (320°)7.4 km/hScattered Clouds
8:49 AM25 °C21 °C78 %1020.3 hPa11.3 kmNW (320°)13 km/hMostly Cloudy
9:47 AM25 °C21 °C78 %1020.7 hPa11.3 kmNNW (330°)18.5 km/hMostly Cloudy
10:48 AM24 °C21 °C83 %1020.3 hPa9.7 kmNW (320°)14.8 km/hRainLight Rain
11:51 AM23 °C20 °C83 %1020 hPa9.7 kmNNW (340°)20.4 km/hMostly Cloudy
12:53 PM24 °C20 °C78 %1019.3 hPa9.7 kmNW (320°)11.1 km/hOvercast
1:45 PM23 °C20 °C83 %1019 hPa9.7 kmNNW (340°)14.8 km/hMostly Cloudy
2:46 PM22 °C18 °C78 %1019.3 hPa9.7 kmNorth (350°)16.7 km/hOvercast
3:41 PM21 °C17 °C78 %1019.6 hPa11.3 kmNorth (350°)20.4 km/hMostly Cloudy
4:43 PM21 °C17 °C78 %1020.3 hPa11.3 kmNNW (340°)16.7 km/hOvercast
5:42 PM20 °C16 °C78 %1020.7 hPa11.3 kmNorth (350°)14.8 km/hOvercast
6:41 PM20 °C16 °C78 %1021.3 hPa11.3 kmNorth (360°)13 km/hOvercast
7:44 PM20 °C16 °C78 %1022.4 hPa11.3 kmNorth (350°)9.3 km/hOvercast
8:52 PM20 °C16 °C78 %1022.4 hPa11.3 kmNorth (350°)11.1 km/hOvercast
9:48 PM20 °C16 °C78 %1022.4 hPa11.3 kmNorth (360°)11.1 km/hOvercast
10:47 PM20 °C16 °C78 %1022.4 hPa9.7 kmNorth (350°)11.1 km/hOvercast
11:46 PM20 °C15 °C73 %1021.7 hPa9.7 kmNorth (350°)9.3 km/hOvercast
Hourly data recorded from MMUN, located 0 kilometers away from Cancun, Quintana Roo







STORIES FROM OUR PARTNERS